Starlink 32874

operational
NORAD ID: 62954 Int'l Des: 2025-029 Owner: SPXS Country: US Constellation: starlink
LEOCIRCULAR

关于 Starlink 32874

正在加载描述...

实时位置

正在加载3D地球...

即将过境

高度历史

Altitude vs Time

uPlot chart will show altitude changes over time

两行轨道根数

1 62954U 25029G 25307.71057148 .00014835 00000-0 51187-3 0 9990
2 62954 53.1532 95.2007 0001902 92.6937 267.4281 15.30207392 42073
Epoch: Nov 3, 2025 • Age: 13 hours

当前状态

高度 478.5 km
速度 7.63 km/s
星下点 44.39°N, 90.38°E
发射日期 Feb 11, 2025
运行时间 0.7 years
类型 internet

技术详情

分类 Payload
质量 730.00 kg
干质量 700.00 kg
总质量 730.00 kg
长度 0.30 m
直径 4.10 m
跨度 29.00 m
形状 Box + pan
制造商 SPXS
平台类型 Starlink V2M
阶段状态 In Orbit
所有者/国家 SPXS/US

大型星座

Loading constellations...